This demonstration page uses our WeatherBlox Daily Observations layout. Learn more.

Left ArrowRight Arrow

39.01783, -85.05884

Hourly Observations for November 27, 2020

Temp ( °F °C ) Dew Point ( °F °C ) Humidity (%) Winds ( mph kmh ) Pressure ( in mb ) Visibility ( mi km ) Precip ( " mm )
12:52 am 00:52 Cloudy 48 8.9 40 4.4 74 74 SSW 5 7 30.1 1019 10 16.0934 0 0
1:52 am 01:52 Cloudy 48 8.9 40 4.4 74 74 SW 3 6 30.1 1019 10 16.0934 0 0
2:52 am 02:52 Cloudy 48 8.9 41 5 77 77 Calm 30.11 1020 10 16.0934 0 0
3:52 am 03:52 Cloudy 47 8.3 41 5 80 80 WSW 5 7 30.11 1020 10 16.0934 0 0
4:52 am 04:52 Cloudy 47 8.3 40 4.4 77 77 NW 3 6 30.1 1019 10 16.0934 0 0
5:52 am 05:52 Cloudy 47 8.3 39 3.9 74 74 W 7 11 30.12 1020 10 16.0934 0 0
6:52 am 06:52 Cloudy 47 8.3 39 3.9 74 74 W 6 9 30.13 1020 10 16.0934 0 0
7:52 am 07:52 Cloudy 47 8.3 39 3.9 74 74 WNW 6 9 30.13 1020 10 16.0934 0 0
8:52 am 08:52 Cloudy 48 8.9 39 3.9 71 71 Calm 30.14 1021 10 16.0934 0 0
9:52 am 09:52 Cloudy 49 9.4 39 3.9 69 69 W 3 6 30.15 1021 10 16.0934 0 0
10:52 am 10:52 Mostly Cloudy 50 10 39 3.9 66 66 VRB 5 7 30.14 1021 10 16.0934 0 0
11:52 am 11:52 Partly Cloudy 50 10 39 3.9 66 66 WSW 7 11 30.12 1020 10 16.0934 0 0
12:52 pm 12:52 Sunny 53 11.7 40 4.4 61 61 S 8 13 30.08 1019 10 16.0934 0 0
1:52 pm 13:52 Partly Cloudy 54 12.2 39 3.9 57 57 undefined N/A 30.06 1018 10 16.0934 0 0
2:52 pm 14:52 Mostly Cloudy 55 12.8 40 4.4 57 57 VRB 3 6 30.05 1018 10 16.0934 0 0
3:52 pm 15:52 Mostly Cloudy 54 12.2 39 3.9 57 57 SSE 6 9 30.04 1017 10 16.0934 0 0
4:52 pm 16:52 Cloudy 53 11.7 38 3.3 57 57 WSW 3 6 30.06 1018 10 16.0934 0 0
5:52 pm 17:52 Cloudy 52 11.1 39 3.9 61 61 W 3 6 30.06 1018 10 16.0934 0 0
6:52 pm 18:52 Cloudy 50 10 40 4.4 68 68 W 5 7 30.07 1018 10 16.0934 0 0
7:52 pm 19:52 Cloudy 50 10 40 4.4 68 68 NW 8 13 30.07 1018 10 16.0934 0 0
8:52 pm 20:52 Mostly Clear 47 8.3 38 3.3 71 71 NW 7 11 30.06 1018 10 16.0934 0 0
9:52 pm 21:52 Clear 45 7.2 38 3.3 77 77 NW 9 15 30.07 1018 10 16.0934 0 0
10:52 pm 22:52 Clear 45 7.2 38 3.3 77 77 NW 9 15 30.08 1019 10 16.0934 0 0
11:52 pm 23:52 Clear 44 6.7 37 2.8 76 76 NW 7 11 30.09 1019 10 16.0934 0 0

Powered by AerisWeather